Regional Weather Roundup
Issued by NWS

Home | Current Version | Previous Version | Text Only | Print | Product List | Glossary On
Versions: 1 2 3 4 5 6 7 8 9 10 11 12 13 14 15 16 17 18 19 20 21 22 23 24 25 26 27 28 29 30 31 32 33 34 35 36 37 38 39 40 41 42 43 44 45 46 47 48 49 50
000
ASUS44 KFWD 301815
RWRTX
NORTH TEXAS HOURLY WEATHER ROUNDUP
NATIONAL WEATHER SERVICE FORT WORTH TX
100 PM CDT THU JUL 30 2015

NOTE: "FAIR" INDICATES FEW OR NO CLOUDS BELOW 12,000 FEET WITH NO
SIGNIFICANT WEATHER AND/OR OBSTRUCTIONS TO VISIBILITY.

TXZ118-119-301900-
DALLAS/FORT WORTH METROPLEX

CITY           SKY/WX    TMP DP  RH WIND       PRES   REMARKS
DFW AIRPORT    MOSUNNY   99  64  31 VRB6      30.09F HX 101
6HR MIN TEMP:  81; 6HR MAX TEMP: 100;

DALLAS LOVE    MOSUNNY  100  63  29 E9        30.08F HX 102
6HR MIN TEMP:  82; 6HR MAX TEMP: 100;

FTW MEACHAM    SUNNY    101  63  28 SE8       30.09F HX 103
6HR MIN TEMP:  80; 6HR MAX TEMP: 101;

DAL-EXECUTIVE  SUNNY     99  63  30 SE7       30.09F HX 101
6HR MIN TEMP:  76; 6HR MAX TEMP: 100;

FTW-ALLIANCE   MOSUNNY   99  63  30 CALM      30.09F HX 101
6HR MIN TEMP:  72; 6HR MAX TEMP: 100;

FTW-NAS-JRB    MOSUNNY  101  64  29 NE5       30.10S HX 104
6HR MIN TEMP:  79; 6HR MAX TEMP: 101;

FTW-SPINKS     PTSUNNY  N/A N/A N/A S6        30.11F
ARLINGTON      SUNNY     99  60  27 VRB5      30.09F HX  99
6HR MIN TEMP:  75; 6HR MAX TEMP: 101;

GRAND PRAIRIE  SUNNY     97  64  34 CALM      30.10F HX  99
ADDISON        MOSUNNY   99  63  30 N5        30.10F HX 100
MESQUITE       SUNNY     99  57  25 CALM      30.09F HX  97
LANCASTER      MOSUNNY   99  56  24 E7        30.09F HX  97
6HR MIN TEMP:  73; 6HR MAX TEMP:  99;

$$

TXZ091>094-102>105-117-120-121-131>134-301900-
NORTH CENTRAL TEXAS

CITY           SKY/WX    TMP DP  RH WIND       PRES   REMARKS
SHRMAN/DENISON PTSUNNY   96  67  37 N5        30.11F HX 100
6HR MIN TEMP:  74; 6HR MAX TEMP:  98;

GAINESVILLE    PTSUNNY   97  66  35 S3        30.12F HX 100
6HR MIN TEMP:  74; 6HR MAX TEMP:  97;

BOWIE          MOSUNNY   95  64  35 CALM      30.12F HX  97
6HR MIN TEMP:  71; 6HR MAX TEMP:  96;

DECATUR        MOSUNNY   96  63  33 S6        30.12F HX  97
6HR MIN TEMP:  76; 6HR MAX TEMP:  96;

DENTON         SUNNY     98  64  32 SW5       30.09F HX 100
6HR MIN TEMP:  74; 6HR MAX TEMP:  99;

MCKINNEY       SUNNY     98  64  32 CALM      30.09F HX 100
6HR MIN TEMP:  73; 6HR MAX TEMP:  99;

GREENVILLE     MOSUNNY  100  59  25 NW6       30.09F HX 100
ROCKWALL       SUNNY     97  64  33 CALM      30.09S HX  99
6HR MIN TEMP:  76; 6HR MAX TEMP:  98;

TERRELL        MOSUNNY   99  65  32 VRB6      30.09F HX 102
6HR MIN TEMP:  75; 6HR MAX TEMP: 101; 6HR PCP: TRACE;

WAXAHACHIE     MOSUNNY   99  66  33 E7        30.11S HX 103
6HR MIN TEMP:  72; 6HR MAX TEMP: 100;

CLEBURNE       PTSUNNY   99  63  30 VRB6G13   30.12S HX 100
GRANBURY       CLOUDY    96  62  32 CALM      30.11F HX  97
6HR MIN TEMP:  74; 6HR MAX TEMP:  98;

$$

TXZ083>090-098>101-113>116-127>130-139>142-154-155-301900-
WESTERN NORTH TEXAS

CITY           SKY/WX    TMP DP  RH WIND       PRES   REMARKS
WICHITA FALLS  MOSUNNY   98  66  34 VRB5      30.10F HX 101
6HR MIN TEMP:  74; 6HR MAX TEMP:  98; 6HR PCP: TRACE;

WF-KICKAPOO    SUNNY     99  62  30 S3        30.11F HX 100
6HR MIN TEMP:  76; 6HR MAX TEMP:  99;

VERNON         SUNNY     98  53  22 E6        30.12F HX  95
ABILENE        SUNNY     95  64  35 SW7       30.16F HX  97
6HR MIN TEMP:  76; 6HR MAX TEMP:  97;

ABILENE-DYESS  MOSUNNY   96  64  35 VRB1      30.14F HX  97
6HR MIN TEMP:  74; 6HR MAX TEMP:  97; 6HR PCP: TRACE;

BRECKENRIDGE   SUNNY     97  63  32 CALM      30.12F HX  98
6HR MIN TEMP:  76; 6HR MAX TEMP:  97;

GRAHAM         SUNNY     96  66  36 CALM      30.10F HX 100
6HR MIN TEMP:  73; 6HR MAX TEMP:  97;

MINERAL WELLS  SUNNY     98  68  37 SE9       30.10F HX 103
6HR MIN TEMP:  75; 6HR MAX TEMP:  98;

STEPHENVILLE   SUNNY     96  61  32 E5        30.16F HX  96
6HR MIN TEMP:  74; 6HR MAX TEMP:  96;

COMANCHE       SUNNY     95  66  38 N5        30.14F HX  98
6HR MIN TEMP:  73; 6HR MAX TEMP:  95;

BROWNWOOD      LGT RAIN  93  64  38 CALM      30.14F HX  95
COLEMAN        MOSUNNY   94  67  40 E5        30.15F HX  97
6HR MIN TEMP:  71; 6HR MAX TEMP:  94;

BRADY          MOSUNNY   97  64  34 VRB5      30.15F HX  99
$$

TXZ143>147-156>162-174-175-301900-
CENTRAL TEXAS

CITY           SKY/WX    TMP DP  RH WIND       PRES   REMARKS
WACO           SUNNY     99  63  30 E5        30.08F HX 101
6HR MIN TEMP:  75; 6HR MAX TEMP:  99;

WACO-TSTC      MOSUNNY   99  63  30 SE6       30.08F HX 100
HILLSBORO      SUNNY     98  62  30 N6        30.10S HX  99
6HR MIN TEMP:  76; 6HR MAX TEMP:  98;

CORSICANA      SUNNY    100  63  29 SE6       30.09F HX 102
6HR MIN TEMP:  77; 6HR MAX TEMP: 102;

MEXIA          SUNNY     99  67  35 E16       30.07F HX 103
6HR MIN TEMP:  74; 6HR MAX TEMP:  99;

HEARNE         SUNNY     99  67  35 E6        30.08F HX 103
6HR MIN TEMP:  73; 6HR MAX TEMP:  99;

CAMERON        MOSUNNY  100  66  32 SE6       30.07F HX 104
6HR MIN TEMP:  76; 6HR MAX TEMP: 100;

TEMPLE         SUNNY     99  64  32 NE7       30.09F HX 101
6HR MIN TEMP:  73; 6HR MAX TEMP:  99;

KILLEEN        MOSUNNY   96  62  31 SE8       30.10F HX  97
6HR MIN TEMP:  81; 6HR MAX TEMP:  96;

KILLEEN-SKYLRK SUNNY     97  63  32 CALM      30.09F HX  98
6HR MIN TEMP:  75; 6HR MAX TEMP:  97;

FORT HOOD      MOSUNNY   96  64  34 S6        30.09F HX  98
6HR MIN TEMP:  78; 6HR MAX TEMP:  96;

GATESVILLE     SUNNY     99  61  28 CALM      30.12F HX  99
HAMILTON       SUNNY     97  59  28 E3        30.14F HX  97
6HR MIN TEMP:  75; 6HR MAX TEMP:  97;

LAMPASAS       SUNNY     96  62  32 NE3       30.11F HX  97
6HR MIN TEMP:  76; 6HR MAX TEMP:  98;

$$

TXZ095>097-106>112-122>126-135>138-148>153-164>167-301900-
EAST TEXAS

CITY           SKY/WX    TMP DP  RH WIND       PRES   REMARKS
PARIS          SUNNY     97  66  36 CALM      30.09F HX 100
6HR MIN TEMP:  79; 6HR MAX TEMP:  97;

SULPHUR SPRNGS MOSUNNY   99  62  29 CALM      30.10F HX 100
6HR MIN TEMP:  77; 6HR MAX TEMP:  99;

MOUNT PLEASANT SUNNY     98  62  30 N5        30.09F HX  99
6HR MIN TEMP:  76; 6HR MAX TEMP: 100;

GILMER         SUNNY     96  67  38 N8        30.08F HX 100
6HR MIN TEMP:  74; 6HR MAX TEMP:  97;

MINEOLA        MOSUNNY   99  61  28 CALM      30.09F HX  99
TYLER          MOSUNNY  100  66  32 NE7       30.08F HX 104
6HR MIN TEMP:  78; 6HR MAX TEMP: 100;

LONGVIEW       PTSUNNY  101  69  35 NE8       30.06F HX 107
6HR MIN TEMP:  78; 6HR MAX TEMP: 101;

MARSHALL       SUNNY     99  69  37 E5        30.09S HX 104
6HR MIN TEMP:  78; 6HR MAX TEMP: 101;

ATHENS         MOSUNNY   95  66  38 NE5       30.07F HX  98
PALESTINE      SUNNY     96  67  38 N6        30.08F HX 101
JACKSONVILLE   SUNNY     99  62  30 NE3       30.11F HX 100
HENDERSON      MOSUNNY   99  67  35 N6        30.08F HX 103
6HR MIN TEMP:  73; 6HR MAX TEMP:  99;

CENTER         CLOUDY    97  70  40 N8G21     30.05F HX 104
6HR MIN TEMP:  76; 6HR MAX TEMP: 100;

NACOGDOCHES    MOSUNNY   99  68  36 NE8       30.05F HX 104
6HR MIN TEMP:  75; 6HR MAX TEMP: 100;

LUFKIN         SUNNY     99  68  36 N7        30.06F HX 104
6HR MIN TEMP:  76; 6HR MAX TEMP:  99;

$$

SUPPLEMENTAL OBSERVATIONS (CENTRAL)

CITY           SKY/WX    TMP DP  RH WIND       PRES   REMARKS
LAKE TEXOMA      N/A     91  68  46 N3          N/A  HX  95
CADDO GRASSLND   N/A     99  64  32 W5          N/A  HX 101
PAT MAYSE LAKE   N/A     93  64  38 S9          N/A  HX  95
ATHENS           N/A    102  64  29 N2          N/A  HX 105
LAKE LIMESTONE   N/A    100  63  28 N3G13       N/A  HX 102
MCGREGOR         N/A    100  61  27 S5          N/A  HX 101
TEMPLE           N/A    100  63  28 NE3         N/A  HX 102
$$

SUPPLEMENTAL OBSERVATIONS (WEST)

CITY           SKY/WX    TMP DP  RH WIND       PRES   REMARKS
MILLERS CREEK    N/A    102  63  27 SE2         N/A  HX 104


USA.gov is the U.S. government's official web portal to all federal, state and local government web resources and services.